STARLINK-33939, 63702

Orbit data source: Space-Track

STARLINK-33939, 63702 is a payload satellite owned by SpaceX/Seattle (US) in LEO that was launched on Mon, 28 Apr 2025 UTC via an FALCON 9 launch vehicle from the Air Force Western Test Range (AFWTR). Payload-class satellites include a variety of spacecraft equipped with specific instruments for various scientific and technological missions. These include communications satellites like Starlink; space stations such as the ISS; scientific satellites like the Hubble; Earth observation satellites from companies like Planet Labs, Umbra, and HawkEye 360; GPS; miniature CubeSats for education and research; and military/defense satellites.

Loading next visibility...
Identifier
63702, 2025-087F
Orbit
LEO
Country
Flag of USUS
Related business
Manufacturer
SpaceX/Seattle
Mission
Operational Commercial Communications
Bus & Motor
STARLINK V2MO, Unknown motor
Mass
575 kg wet, ~530 kg dry
Launch date (UTC)
2025-04-28 (8 months ago)
Launch vehicle
FALCON 9
Launch site
Air Force Western Test Range (AFWTR)
Object type
Payload
Rocket body
Debris
Shape & HBR
Box + 2 Pan, 17.7 m
Radar Cross Section
36.964 m², Large (>1 m²)

Expand to show TLE details & history
Last TLE update: 6 hours ago

TLE from 6 hours ago
0 STARLINK-33939
1 63702U 25087F   25349.92711620  .00032973  00000-0  11196-2 0  9995
2 63702  53.1599 248.7382 0001266  93.5515 266.5631 15.30226157 36379
Epoch: 2025-12-15T22:15Z
TLE epoch observation values (Epoch: 2025-12-15T22:15:02.839Z)
Latitude
Longitude
-169.84229°
Altitude
476.089 km
Speed
7.629 km/s
True Right ascension
16h 34m 57s
True Declination
0° 00' 00"
Sunlit
Object was in daylight at epoch
Visualization orbit readout
Latitude
Unknown
Longitude
Unknown
Altitude
Unknown
Speed
Unknown
Apparent Right ascension
Unknown
Apparent Declination
Unknown
Sunlit
N/A
Visualization observer readout
Local Sidereal Time
03:10:43
Azimuth
Unknown
Elevation
Unknown
Doppler factor
Unknown
Orbital elements
Apogee altitude
476.261 km
Perigee altitude
474.526 km
Semi-major axis
6,853.53 km
Eccentricity
0.00013
Inclination
53.1599°
RAAN
248.7382°
Arg. of periapsis
93.5515°
True anomaly
266.54862°
Mean anomaly
266.5631°
Eccentric anomaly
266.55586°
Mean motion
3.82535 °/min
Orbital period
94.11 mins
BSTAR
0.0011196
Loading maneuver chart data...
Computing Atmospheric mass density...
Loading historical data...
Loading historical data...
Loading historical data...
Loading historical data...
Loading historical data...
Loading historical data...
Loading historical data...

Documentation

Showing up to 5 results
|